This is the latest recevied weather packets stored in our database for station/object AB4KY. If no packets are shown the sender has not sent any weather packets the latest 10 day(s).
| Time | Temp. | Humidity | Pressure | Rain* | Wind** | Luminosity | Snow |
|---|---|---|---|---|---|---|---|
| 1777465178 | 15.56° C | 99% | 1008.6 hPa | 0 mm | - | 15 W/m² | - |
| 1777464874 | 15.56° C | 99% | 1008.6 hPa | 0.51 mm | - | 15 W/m² | - |
| 1777464569 | 15.56° C | 99% | 1008.6 hPa | 1.27 mm | - | 17 W/m² | - |
| 1777464266 | 15.56° C | 99% | 1008.5 hPa | 0 mm | - | 12 W/m² | - |
| 1777463961 | 15° C | 99% | 1008.5 hPa | 0 mm | - | 6 W/m² | - |
| 1777463657 | 15° C | 99% | 1008.5 hPa | 0 mm | - | 9 W/m² | - |
| 1777463351 | 15° C | 99% | 1008.5 hPa | 0.51 mm | - | 4 W/m² | - |
| 1777463048 | 15° C | 99% | 1008.5 hPa | 0.51 mm | - | 4 W/m² | - |
| 1777462743 | 15° C | 99% | 1008.6 hPa | 0 mm | - | 5 W/m² | - |
| 1777462439 | 15° C | 99% | 1008.5 hPa | 0.51 mm | - | 1 W/m² | - |
| 1777462136 | 15° C | 99% | 1008.3 hPa | 0.51 mm | - | 0 W/m² | - |
| 1777461832 | 15° C | 99% | 1008.2 hPa | 0 mm | - | 2 W/m² | - |
| 1777461528 | 15° C | 99% | 1008.2 hPa | 0 mm | - | 0 W/m² | - |
| 1777461225 | 15° C | 99% | 1008.5 hPa | 0 mm | - | 1 W/m² | - |
| 1777460919 | 15° C | 99% | 1008.5 hPa | 0 mm | - | 0 W/m² | - |
| 1777460615 | 15° C | 99% | 1008.6 hPa | 0.51 mm | - | 0 W/m² | - |
| 1777460311 | 15° C | 99% | 1008.4 hPa | 1.27 mm | - | 0 W/m² | - |
| 1777460008 | 15° C | 99% | 1008.4 hPa | 0.51 mm | - | 0 W/m² | - |
| 1777459705 | 15° C | 99% | 1008.5 hPa | 0 mm | - | 0 W/m² | - |
| 1777459402 | 15° C | 99% | 1008.4 hPa | 0 mm | - | 0 W/m² | - |
| 1777459099 | 15° C | 99% | 1008.6 hPa | 0 mm | - | 0 W/m² | - |
| 1777458797 | 15° C | 99% | 1008.7 hPa | 0 mm | - | 0 W/m² | - |
| 1777458493 | 15° C | 99% | 1008.4 hPa | 0 mm | - | 0 W/m² | - |
| 1777458191 | 15° C | 99% | 1008.5 hPa | 0 mm | - | 0 W/m² | - |
| 1777457885 | 15° C | 99% | 1008.6 hPa | 0 mm | - | 0 W/m² | - |
* Rain latest hour (hover to see other rain measurements)
** Current wind speed in m/s (hover to see current wind gust speed)